7 * 24
多渠道服务支持
MOLNIYA 1-29(闪电1-29)是苏联解体后独立国家联合体(CIS)继承的第一代闪电系列通信卫星,于1975年4月29日发射升空,运行在以该系列命名的“闪电轨道”上。作为针对高纬度地区优化的通信卫星,它主要承担电视转播、跨区域通信任务,也兼顾军用通信需求,其大椭圆轨道设计可让卫星大部分时间停留北半球上空,为苏联高纬度区域提供稳定通信服务,是早期闪电星座组网运行的重要组成部分。
| 数据来源 | 国际轨道数据 |
| 星历时间: | 2026-03-13T09:17:07+0800 1天前 查看轨道信息 |
| 半长轴: | 26556.632km |
| 偏心率: | 0.6886832 |
| 轨道倾角: | 63.971° |
| 近地点辐角 | 279.537° |
| 升交点赤经 | 72.095° |
| 平近点角 | 14.621° |
| 近地点: | 1889.388km |
| 远地点: | 38467.602km |
| 周期: | 717.826分钟 |
| 每日圈数: | 2.006057 |